Regional Weather Roundup
Issued by NWS Midland/Odessa, TX

Skip options and go directly to product.
Home | Oldest Version | Next Version | Current Version | All | Text Only | Save Text | Print | Product List | Glossary On

Skip product version selection by date and time.   
070
ASUS44 KMAF 170802
RWRMAF
MIDLAND AREA WEATHER ROUNDUP
NATIONAL WEATHER SERVICE MIDLAND TX
300 AM CDT WED SEP 17 2014

...IN SOUTHWEST TEXAS AND SOUTHEAST NEW MEXICO...

CITY           SKY/WX    TMP DP  RH WIND       PRES   REMARKS
ALPINE         MOCLDY    63  60  89 W5        30.19F
ANDREWS        FAIR      67  67  97 NE3       30.10S
ARTESIA        NOT AVBL
BIG SPRING     MOCLDY    74  69  83 CALM      30.09S
CARLSBAD       CLOUDY    68  32  26 W5        30.09S
DRYDEN           N/A     77  69  76 NE6       30.01F
FORT STOCKTON  CLOUDY    70  64  81 SE8       30.06S
GUAD PASS      MOCLDY    63  61  93 NE25      30.19F
HOBBS          MOCLDY    66  66 100 E3        30.13S
MARFA          PTCLDY    61  57  88 N3        30.18F
MIDLAND AIRPK  NOT AVBL
MIDLAND INTL   CLOUDY    72  66  81 E7        30.07F
ODESSA         PTCLDY    70  66  87 E8        30.08F
PECOS          CLOUDY    71  64  79 NE6       30.05S
PRESIDIO       FAIR      76  63  62 NE10      30.03R
SEMINOLE       CLOUDY    67  66  97 CALM      30.12S
SNYDER         CLOUDY    70  68  95 NE3       30.06F
WINK           CLOUDY    73  66  78 E8        30.04F
$$
...OTHER STATIONS IN TEXAS...

CITY           SKY/WX    TMP DP  RH WIND       PRES   REMARKS
ABILENE        CLOUDY    75  70  84 SE3       30.03F
AMARILLO       CLOUDY    63  62  97 SW7       30.10S
AUSTIN         CLOUDY    75  74  96 S5        29.98S
BROWNSVILLE    PTCLDY    77  76  96 S5        29.95F
CORPUS CHRISTI PTCLDY    78  76  93 S6        29.95F
DALLAS FTW     MOCLDY    79  71  76 SW7       29.97F
DEL RIO        PTCLDY    78  73  84 E8        29.96F
EL PASO        CLOUDY    69  64  84 N12       30.08F
HOUSTON INT    CLOUDY    76  75  97 CALM      29.96F
LUBBOCK        LGT RAIN  68  66  93 S9        30.09F
SAN ANGELO     CLOUDY    77  68  73 S5        30.02F
SAN ANTONIO    CLOUDY    78  75  90 E5        29.99S
WACO           MOCLDY    73  70  90 CALM      29.98F
WICHITA FALLS  NOT AVBL
$$
...OTHER LOCATIONS IN NEW MEXICO...

CITY           SKY/WX    TMP DP  RH WIND       PRES   REMARKS
ALAMAGORDO     CLOUDY    64  64 100 SE3       30.12F
ALBUQUERQUE    CLOUDY    62  53  72 SE3       30.21F
CANNON AFB     MOCLDY    64  61  88 W8        30.15S
CLOVIS           N/A     64  61  88 W3        30.17S
HOLLOMAN AFB   CLOUDY    65  65 100 CALM      30.10F
ROSWELL        CLOUDY    66  65  96 SW3       30.12S FOG
RUIDOSO        FOG       55  55 100 CALM      30.30S VSB<1/4
SANTA FE       CLOUDY    57  52  83 CALM      30.25F
TRUTH OR CONSE CLOUDY    64  62  93 N5        30.15S
TUCUMCARI      MOCLDY    65  59  81 W7        30.11S
$$

USA.gov is the U.S. government's official web portal to all federal, state and local government web resources and services.